Location: Unspecified
(50.7693°N, 0.0000°E)
Time: 00:44:02
(UTC+00:00)

Transit 2A - Pass Details

Date: 29 June 2019
Orbit: 594 x 964 km, 66.7° (Epoch: 20 July)

Event Time Altitude Azimuth Distance (km) Brightness Sun altitude
Rises 06:51:56 0° 322° (NW) 3,476 9.1 25.3°
Reaches altitude 10° 06:54:32 10° 322° (NW) 2,481 8.4 25.7°
Maximum altitude 07:00:16 88° 55° (NE) 790 6.6 26.6°
Drops below altitude 10° 07:05:21 10° 144° (SE) 2,213 8.9 27.4°
Sets 07:07:34 0° 144° (SE) 3,075 9.6 27.8°
